Time,TemperatureF,DewpointF,PressureIn,WindDirection,WindDirectionDegrees,WindSpeedMPH,WindSpeedGustMPH,Humidity,HourlyPrecipIn,Conditions,Clouds,dailyrainin,SoftwareType,DateUTC
2013-03-02 00:00:00,33.1,12.5,29.15,WNW,283,7.2,14.5,42,-99.99,,,-99.99,WSDL version 342,2013-03-02 05:00:00,
2013-03-02 00:01:00,33.1,12.3,29.15,West,274,7.6,14.5,41,-99.99,,,-99.99,WSDL version 342,2013-03-02 05:01:00,
2013-03-02 00:02:00,33.1,12.3,29.15,West,280,7.5,14.5,42,-99.99,,,-99.99,WSDL version 342,2013-03-02 05:02:00,
2013-03-02 00:03:00,33.1,12.3,29.15,West,270,6.6,14.5,42,-99.99,,,-99.99,WSDL version 342,2013-03-02 05:03:00,
2013-03-02 00:08:00,33.1,12.5,29.12,WNW,287,7.0,12.3,42,-99.99,,,-99.99,WSDL version 342,2013-03-02 05:08:00,
2013-03-02 00:13:00,33.0,12.3,29.12,WNW,293,4.9,8.9,42,-99.99,,,-99.99,WSDL version 342,2013-03-02 05:13:00,
2013-03-02 00:18:00,32.9,12.3,29.12,WNW,289,5.9,12.1,42,-99.99,,,-99.99,WSDL version 342,2013-03-02 05:18:00,
2013-03-02 00:23:00,32.9,12.0,29.12,West,264,6.9,12.1,41,-99.99,,,-99.99,WSDL version 342,2013-03-02 05:23:00,
2013-03-02 00:28:00,32.8,11.8,29.12,West,270,6.3,10.5,41,-99.99,,,-99.99,WSDL version 342,2013-03-02 05:28:00,
2013-03-02 00:33:00,32.7,11.6,29.12,West,260,5.0,10.5,41,-99.99,,,-99.99,WSDL version 342,2013-03-02 05:33:00,
2013-03-02 00:38:00,32.7,11.7,29.15,West,278,5.7,8.5,42,-99.99,,,-99.99,WSDL version 342,2013-03-02 05:38:00,
2013-03-02 00:42:00,32.7,12.2,29.15,WNW,293,4.8,8.5,42,-99.99,,,-99.99,WSDL version 342,2013-03-02 05:42:00,
2013-03-02 00:47:00,32.5,12.0,29.15,West,275,5.6,7.8,42,-99.99,,,-99.99,WSDL version 342,2013-03-02 05:47:00,
2013-03-02 00:52:00,32.5,12.3,29.15,WNW,285,6.0,7.8,43,-99.99,,,-99.99,WSDL version 342,2013-03-02 05:52:00,
2013-03-02 00:57:00,32.5,12.5,29.15,West,262,6.0,8.9,43,-99.99,,,-99.99,WSDL version 342,2013-03-02 05:57:00,
2013-03-02 01:02:00,32.5,12.9,29.15,WNW,283,5.8,10.5,44,-99.99,,,-99.99,WSDL version 342,2013-03-02 06:02:00,
2013-03-02 01:07:00,32.4,12.6,29.15,West,260,7.0,10.7,43,-99.99,,,-99.99,WSDL version 342,2013-03-02 06:07:00,
2013-03-02 01:12:00,32.2,12.2,29.15,West,281,5.5,10.7,43,-99.99,,,-99.99,WSDL version 342,2013-03-02 06:12:00,
2013-03-02 01:17:00,32.0,14.2,29.15,WNW,284,5.7,10.1,43,-99.99,,,-99.99,WSDL version 342,2013-03-02 06:17:00,
2013-03-02 01:22:00,31.8,14.1,29.15,West,281,6.7,9.6,43,-99.99,,,-99.99,WSDL version 342,2013-03-02 06:22:00,
2013-03-02 01:27:00,31.6,13.9,29.15,WNW,285,6.0,9.6,43,-99.99,,,-99.99,WSDL version 342,2013-03-02 06:27:00,
2013-03-02 01:32:00,31.5,13.6,29.15,WNW,293,6.2,8.7,42,-99.99,,,-99.99,WSDL version 342,2013-03-02 06:32:00,
2013-03-02 01:37:00,31.5,13.3,29.15,WNW,293,5.5,9.6,42,-99.99,,,-99.99,WSDL version 342,2013-03-02 06:37:00,
2013-03-02 01:42:00,31.3,13.1,29.15,West,278,6.1,10.1,42,-99.99,,,-99.99,WSDL version 342,2013-03-02 06:42:00,
2013-03-02 01:47:00,31.3,13.1,29.15,WSW,257,5.3,10.1,42,-99.99,,,-99.99,WSDL version 342,2013-03-02 06:47:00,
2013-03-02 01:52:00,31.2,13.0,29.15,WSW,254,5.4,9.8,42,-99.99,,,-99.99,WSDL version 342,2013-03-02 06:52:00,
2013-03-02 01:57:00,31.1,12.9,29.15,WNW,297,6.2,10.3,42,-99.99,,,-99.99,WSDL version 342,2013-03-02 06:57:00,
2013-03-02 02:02:00,31.1,12.9,29.15,WNW,293,4.4,10.3,42,-99.99,,,-99.99,WSDL version 342,2013-03-02 07:02:00,
2013-03-02 02:07:00,31.1,12.9,29.15,WNW,293,4.7,8.5,42,-99.99,,,-99.99,WSDL version 342,2013-03-02 07:07:00,
2013-03-02 02:12:00,31.1,12.9,29.15,West,278,4.9,8.5,42,-99.99,,,-99.99,WSDL version 342,2013-03-02 07:12:00,
2013-03-02 02:17:00,31.1,12.9,29.15,West,273,3.9,7.4,42,-99.99,,,-99.99,WSDL version 342,2013-03-02 07:17:00,
2013-03-02 02:22:00,30.9,12.9,29.12,WNW,295,4.1,6.9,43,-99.99,,,-99.99,WSDL version 342,2013-03-02 07:22:00,
2013-03-02 02:28:00,30.9,12.7,29.12,West,279,4.3,7.4,42,-99.99,,,-99.99,WSDL version 342,2013-03-02 07:28:00,
2013-03-02 02:33:00,30.8,12.6,29.12,West,276,4.6,7.8,42,-99.99,,,-99.99,WSDL version 342,2013-03-02 07:33:00,
2013-03-02 02:38:00,30.7,12.6,29.15,WNW,289,4.4,7.8,42,-99.99,,,-99.99,WSDL version 342,2013-03-02 07:38:00,
2013-03-02 02:43:00,30.7,12.6,29.15,West,266,3.1,8.7,42,-99.99,,,-99.99,WSDL version 342,2013-03-02 07:43:00,
2013-03-02 02:48:00,30.7,12.6,29.15,West,278,4.5,10.1,42,-99.99,,,-99.99,WSDL version 342,2013-03-02 07:48:00,
2013-03-02 02:53:00,30.7,12.5,29.12,WNW,296,4.9,10.1,42,-99.99,,,-99.99,WSDL version 342,2013-03-02 07:53:00,
2013-03-02 02:58:00,30.6,12.4,29.12,NW,307,3.6,7.6,42,-99.99,,,-99.99,WSDL version 342,2013-03-02 07:58:00,
2013-03-02 03:03:00,30.6,12.4,29.12,WNW,283,4.9,8.7,42,-99.99,,,-99.99,WSDL version 342,2013-03-02 08:03:00,
2013-03-02 03:08:00,30.6,12.4,29.15,WNW,284,3.2,8.7,42,-99.99,,,-99.99,WSDL version 342,2013-03-02 08:08:00,
2013-03-02 03:13:00,30.6,12.4,29.15,West,281,4.7,8.7,42,-99.99,,,-99.99,WSDL version 342,2013-03-02 08:13:00,
2013-03-02 03:18:00,30.6,12.4,29.15,West,263,3.4,8.7,42,-99.99,,,-99.99,WSDL version 342,2013-03-02 08:18:00,
2013-03-02 03:23:00,30.6,12.4,29.15,West,276,4.9,7.8,42,-99.99,,,-99.99,WSDL version 342,2013-03-02 08:23:00,
2013-03-02 03:28:00,30.6,12.4,29.15,WNW,293,4.4,8.7,42,-99.99,,,-99.99,WSDL version 342,2013-03-02 08:28:00,
2013-03-02 03:33:00,30.6,12.4,29.15,WNW,300,4.2,8.7,42,-99.99,,,-99.99,WSDL version 342,2013-03-02 08:33:00,
2013-03-02 03:38:00,30.4,12.3,29.15,WNW,289,5.1,7.4,42,-99.99,,,-99.99,WSDL version 342,2013-03-02 08:38:00,
2013-03-02 03:43:00,30.4,12.2,29.15,West,273,3.1,7.4,42,-99.99,,,-99.99,WSDL version 342,2013-03-02 08:43:00,
2013-03-02 03:48:00,30.4,12.2,29.15,WNW,301,5.3,7.6,42,-99.99,,,-99.99,WSDL version 342,2013-03-02 08:48:00,
2013-03-02 03:53:00,30.4,12.2,29.15,NW,315,5.6,8.7,42,-99.99,,,-99.99,WSDL version 342,2013-03-02 08:53:00,
2013-03-02 03:58:00,30.4,12.2,29.15,WNW,296,5.1,8.7,42,-99.99,,,-99.99,WSDL version 342,2013-03-02 08:58:00,
2013-03-02 04:03:00,30.4,12.2,29.15,WNW,286,4.6,7.2,42,-99.99,,,-99.99,WSDL version 342,2013-03-02 09:03:00,
2013-03-02 04:08:00,30.4,12.2,29.15,WSW,257,4.1,7.6,42,-99.99,,,-99.99,WSDL version 342,2013-03-02 09:08:00,
2013-03-02 04:15:00,30.3,12.4,29.15,WNW,289,3.6,7.2,43,-99.99,,,-99.99,WSDL version 342,2013-03-02 09:15:00,
2013-03-02 04:20:00,30.2,12.9,29.15,WNW,283,3.6,7.2,44,-99.99,,,-99.99,WSDL version 342,2013-03-02 09:20:00,
2013-03-02 04:25:00,30.2,12.9,29.15,WNW,287,4.8,7.4,44,-99.99,,,-99.99,WSDL version 342,2013-03-02 09:25:00,
2013-03-02 04:30:00,30.2,12.7,29.15,West,273,6.0,7.4,43,-99.99,,,-99.99,WSDL version 342,2013-03-02 09:30:00,
2013-03-02 04:35:00,30.2,12.7,29.15,WNW,285,4.8,8.1,44,-99.99,,,-99.99,WSDL version 342,2013-03-02 09:35:00,
2013-03-02 04:40:00,30.0,12.4,29.15,WSW,254,6.2,10.7,43,-99.99,,,-99.99,WSDL version 342,2013-03-02 09:40:00,
2013-03-02 04:45:00,30.0,12.3,29.15,West,281,5.1,10.7,43,-99.99,,,-99.99,WSDL version 342,2013-03-02 09:45:00,
2013-03-02 04:50:00,29.8,12.2,29.15,West,281,4.7,8.7,43,-99.99,,,-99.99,WSDL version 342,2013-03-02 09:50:00,
2013-03-02 04:56:00,29.8,12.3,29.15,West,266,4.2,6.5,44,-99.99,,,-99.99,WSDL version 342,2013-03-02 09:56:00,
2013-03-02 05:01:00,29.7,12.5,29.15,West,280,4.9,6.5,44,-99.99,,,-99.99,WSDL version 342,2013-03-02 10:01:00,
2013-03-02 05:06:00,29.7,12.5,29.15,NW,304,5.6,7.8,44,-99.99,,,-99.99,WSDL version 342,2013-03-02 10:06:00,
2013-03-02 05:13:00,29.7,12.5,29.15,West,264,5.7,7.8,44,-99.99,,,-99.99,WSDL version 342,2013-03-02 10:13:00,
2013-03-02 05:19:00,29.5,12.3,29.15,WNW,286,6.1,11.4,43,-99.99,,,-99.99,WSDL version 342,2013-03-02 10:19:00,
2013-03-02 05:24:00,29.4,11.8,29.12,West,278,5.1,11.4,43,-99.99,,,-99.99,WSDL version 342,2013-03-02 10:24:00,
2013-03-02 05:30:00,29.3,11.7,29.12,West,276,6.0,8.1,43,-99.99,,,-99.99,WSDL version 342,2013-03-02 10:30:00,
2013-03-02 05:36:00,29.2,11.6,29.12,WNW,293,5.1,7.8,43,-99.99,,,-99.99,WSDL version 342,2013-03-02 10:36:00,
2013-03-02 05:41:00,29.1,11.7,29.15,WNW,289,6.4,8.1,43,-99.99,,,-99.99,WSDL version 342,2013-03-02 10:41:00,
2013-03-02 05:46:00,29.1,11.8,29.15,West,276,4.8,8.1,44,-99.99,,,-99.99,WSDL version 342,2013-03-02 10:46:00,
2013-03-02 05:51:00,28.9,11.5,29.15,WNW,285,5.4,8.7,44,-99.99,,,-99.99,WSDL version 342,2013-03-02 10:51:00,
2013-03-02 05:56:00,28.9,11.7,29.15,WNW,284,5.7,9.6,43,-99.99,,,-99.99,WSDL version 342,2013-03-02 10:56:00,
2013-03-02 06:01:00,28.9,11.4,29.15,West,280,5.7,9.6,43,-99.99,,,-99.99,WSDL version 342,2013-03-02 11:01:00,
2013-03-02 06:06:00,28.9,11.4,29.15,WNW,293,5.2,8.7,43,-99.99,,,-99.99,WSDL version 342,2013-03-02 11:06:00,
2013-03-02 06:11:00,28.9,11.4,29.15,WNW,301,6.0,9.8,43,-99.99,,,-99.99,WSDL version 342,2013-03-02 11:11:00,
2013-03-02 06:16:00,28.9,11.1,29.15,WNW,286,5.2,10.1,42,-99.99,,,-99.99,WSDL version 342,2013-03-02 11:16:00,
2013-03-02 06:21:00,28.9,11.1,29.15,West,273,3.9,10.1,43,-99.99,,,-99.99,WSDL version 342,2013-03-02 11:21:00,
2013-03-02 06:26:00,28.9,11.3,29.12,West,281,4.5,6.5,43,-99.99,,,-99.99,WSDL version 342,2013-03-02 11:26:00,
2013-03-02 06:31:00,28.9,11.6,29.12,WNW,285,4.1,5.6,44,-99.99,,,-99.99,WSDL version 342,2013-03-02 11:31:00,
2013-03-02 06:36:00,28.9,11.8,29.12,WNW,289,4.0,7.2,44,-99.99,,,-99.99,WSDL version 342,2013-03-02 11:36:00,
2013-03-02 06:41:00,28.9,11.8,29.15,West,273,4.6,7.2,44,-99.99,,,-99.99,WSDL version 342,2013-03-02 11:41:00,
2013-03-02 06:46:00,29.0,11.9,29.15,West,267,6.1,10.5,44,-99.99,,,-99.99,WSDL version 342,2013-03-02 11:46:00,
2013-03-02 06:51:00,29.1,12.1,29.15,West,266,6.6,12.8,44,-99.99,,,-99.99,WSDL version 342,2013-03-02 11:51:00,
2013-03-02 06:56:00,29.3,12.1,29.18,WNW,283,5.1,12.8,44,-99.99,,,-99.99,WSDL version 342,2013-03-02 11:56:00,
2013-03-02 07:01:00,29.4,12.2,29.18,WNW,293,5.0,7.6,44,-99.99,,,-99.99,WSDL version 342,2013-03-02 12:01:00,
2013-03-02 07:06:00,29.5,12.3,29.18,West,267,5.5,7.8,44,-99.99,,,-99.99,WSDL version 342,2013-03-02 12:06:00,
2013-03-02 07:11:00,29.5,11.9,29.15,WNW,285,4.8,7.8,43,-99.99,,,-99.99,WSDL version 342,2013-03-02 12:11:00,
2013-03-02 07:16:00,29.6,12.5,29.15,WNW,284,5.0,10.1,44,-99.99,,,-99.99,WSDL version 342,2013-03-02 12:16:00,
2013-03-02 07:22:00,29.7,12.2,29.15,West,266,5.0,10.1,44,-99.99,,,-99.99,WSDL version 342,2013-03-02 12:22:00,
2013-03-02 07:27:00,29.8,12.2,29.18,West,270,6.4,8.5,43,-99.99,,,-99.99,WSDL version 342,2013-03-02 12:27:00,
2013-03-02 07:32:00,30.0,12.4,29.18,West,276,4.8,8.1,43,-99.99,,,-99.99,WSDL version 342,2013-03-02 12:32:00,
2013-03-02 07:37:00,30.2,12.7,29.18,WNW,284,5.2,6.5,43,-99.99,,,-99.99,WSDL version 342,2013-03-02 12:37:00,
2013-03-02 07:42:00,30.3,12.5,29.18,WNW,285,5.4,9.8,42,-99.99,,,-99.99,WSDL version 342,2013-03-02 12:42:00,
2013-03-02 07:47:00,30.3,12.2,29.18,WNW,288,6.8,11.4,42,-99.99,,,-99.99,WSDL version 342,2013-03-02 12:47:00,
2013-03-02 07:52:00,30.4,11.8,29.21,West,281,6.3,11.4,41,-99.99,,,-99.99,WSDL version 342,2013-03-02 12:52:00,
2013-03-02 07:58:00,30.5,11.8,29.21,West,276,6.2,8.9,41,-99.99,,,-99.99,WSDL version 342,2013-03-02 12:58:00,
2013-03-02 08:03:00,30.6,12.1,-100.00,WNW,286,5.3,8.9,41,-99.99,,,-99.99,WSDL version 342,2013-03-02 13:03:00,
2013-03-02 08:08:00,30.8,12.4,29.18,WNW,293,6.1,8.1,42,-99.99,,,-99.99,WSDL version 342,2013-03-02 13:08:00,
2013-03-02 08:13:00,31.1,12.7,29.18,WNW,287,5.4,10.3,42,-99.99,,,-99.99,WSDL version 342,2013-03-02 13:13:00,
2013-03-02 08:18:00,31.4,12.7,29.18,West,259,8.1,10.3,41,-99.99,,,-99.99,WSDL version 342,2013-03-02 13:18:00,
2013-03-02 08:24:00,31.6,12.8,29.18,West,264,6.9,10.7,41,-99.99,,,-99.99,WSDL version 342,2013-03-02 13:24:00,
2013-03-02 08:29:00,31.9,12.5,29.18,West,270,6.5,12.1,40,-99.99,,,-99.99,WSDL version 342,2013-03-02 13:29:00,
2013-03-02 08:34:00,32.4,10.7,29.18,WNW,289,6.5,12.1,40,-99.99,,,-99.99,WSDL version 342,2013-03-02 13:34:00,
2013-03-02 08:39:00,32.9,10.8,29.15,West,278,7.0,11.2,38,-99.99,,,-99.99,WSDL version 342,2013-03-02 13:39:00,
2013-03-02 08:45:00,33.7,11.8,29.15,WNW,296,5.1,11.2,39,-99.99,,,-99.99,WSDL version 342,2013-03-02 13:45:00,
2013-03-02 08:50:00,34.0,10.5,29.15,WNW,293,6.1,11.0,36,-99.99,,,-99.99,WSDL version 342,2013-03-02 13:50:00,
2013-03-02 08:55:00,33.9,9.1,29.15,WNW,295,7.7,14.1,35,-99.99,,,-99.99,WSDL version 342,2013-03-02 13:55:00,
2013-03-02 09:00:00,34.2,9.8,29.15,WNW,286,5.0,14.1,36,-99.99,,,-99.99,WSDL version 342,2013-03-02 14:00:00,
2013-03-02 09:05:00,34.8,9.5,29.15,WNW,293,8.2,14.1,34,-99.99,,,-99.99,WSDL version 342,2013-03-02 14:05:00,
2013-03-02 09:10:00,34.8,9.3,29.15,West,261,5.9,14.1,34,-99.99,,,-99.99,WSDL version 342,2013-03-02 14:10:00,
2013-03-02 09:15:00,35.1,9.0,29.15,West,273,7.9,10.5,33,-99.99,,,-99.99,WSDL version 342,2013-03-02 14:15:00,
2013-03-02 09:20:00,34.9,8.7,29.15,West,278,6.3,13.4,33,-99.99,,,-99.99,WSDL version 342,2013-03-02 14:20:00,
2013-03-02 09:26:00,35.1,8.9,29.15,West,275,8.0,13.4,33,-99.99,,,-99.99,WSDL version 342,2013-03-02 14:26:00,
2013-03-02 09:31:00,35.3,9.0,29.15,West,267,4.5,11.9,33,-99.99,,,-99.99,WSDL version 342,2013-03-02 14:31:00,
2013-03-02 09:36:00,35.6,9.0,29.15,WNW,299,6.0,12.3,32,-99.99,,,-99.99,WSDL version 342,2013-03-02 14:36:00,
2013-03-02 09:41:00,35.5,8.7,29.12,WNW,289,5.2,12.3,32,-99.99,,,-99.99,WSDL version 342,2013-03-02 14:41:00,
2013-03-02 09:46:00,35.9,9.1,29.12,NW,308,4.9,7.8,32,-99.99,,,-99.99,WSDL version 342,2013-03-02 14:46:00,
2013-03-02 09:51:00,35.6,8.7,29.12,WSW,254,5.7,10.3,32,-99.99,,,-99.99,WSDL version 342,2013-03-02 14:51:00,
2013-03-02 09:56:00,35.5,8.5,29.15,West,278,8.8,14.8,32,-99.99,,,-99.99,WSDL version 342,2013-03-02 14:56:00,
2013-03-02 10:01:00,35.4,8.4,29.15,WNW,283,6.3,14.8,32,-99.99,,,-99.99,WSDL version 342,2013-03-02 15:01:00,
2013-03-02 10:06:00,35.7,8.7,29.15,NW,312,5.3,9.6,32,-99.99,,,-99.99,WSDL version 342,2013-03-02 15:06:00,
2013-03-02 10:11:00,36.5,9.4,29.15,NW,318,4.3,9.6,32,-99.99,,,-99.99,WSDL version 342,2013-03-02 15:11:00,
2013-03-02 10:16:00,36.5,8.7,29.15,WNW,296,5.4,8.1,31,-99.99,,,-99.99,WSDL version 342,2013-03-02 15:16:00,
2013-03-02 10:21:00,36.6,8.8,29.15,WNW,289,6.5,8.5,31,-99.99,,,-99.99,WSDL version 342,2013-03-02 15:21:00,
2013-03-02 10:26:00,36.7,8.9,29.15,West,281,4.7,8.5,31,-99.99,,,-99.99,WSDL version 342,2013-03-02 15:26:00,
2013-03-02 10:31:00,36.7,8.9,29.15,WNW,283,5.9,12.3,31,-99.99,,,-99.99,WSDL version 342,2013-03-02 15:31:00,
2013-03-02 10:36:00,36.9,9.1,29.15,WNW,287,4.5,12.3,31,-99.99,,,-99.99,WSDL version 342,2013-03-02 15:36:00,
2013-03-02 10:41:00,37.3,8.8,29.15,WSW,256,6.7,12.3,30,-99.99,,,-99.99,WSDL version 342,2013-03-02 15:41:00,
2013-03-02 10:46:00,37.3,8.7,29.15,WSW,255,5.0,12.3,30,-99.99,,,-99.99,WSDL version 342,2013-03-02 15:46:00,
2013-03-02 10:51:00,37.3,8.7,29.15,WNW,293,5.1,7.6,30,-99.99,,,-99.99,WSDL version 342,2013-03-02 15:51:00,
2013-03-02 10:56:00,37.5,8.9,29.18,NNW,330,4.6,7.8,30,-99.99,,,-99.99,WSDL version 342,2013-03-02 15:56:00,
2013-03-02 11:01:00,37.7,9.1,29.18,WNW,287,5.1,7.8,30,-99.99,,,-99.99,WSDL version 342,2013-03-02 16:01:00,
2013-03-02 11:06:00,38.4,9.6,29.18,NW,309,3.8,7.4,30,-99.99,,,-99.99,WSDL version 342,2013-03-02 16:06:00,
2013-03-02 11:11:00,38.6,9.6,29.15,WSW,254,4.9,10.3,29,-99.99,,,-99.99,WSDL version 342,2013-03-02 16:11:00,
2013-03-02 11:16:00,38.1,8.7,29.15,WNW,289,6.3,10.3,29,-99.99,,,-99.99,WSDL version 342,2013-03-02 16:16:00,
2013-03-02 11:21:00,38.2,8.8,29.15,West,273,5.2,10.1,29,-99.99,,,-99.99,WSDL version 342,2013-03-02 16:21:00,
2013-03-02 11:26:00,38.3,8.8,29.12,NW,312,3.6,10.1,29,-99.99,,,-99.99,WSDL version 342,2013-03-02 16:26:00,
2013-03-02 11:31:00,39.0,10.0,29.12,WNW,293,3.3,7.4,29,-99.99,,,-99.99,WSDL version 342,2013-03-02 16:31:00,
2013-03-02 11:36:00,38.7,9.1,29.12,WNW,295,5.8,8.1,29,-99.99,,,-99.99,WSDL version 342,2013-03-02 16:36:00,
2013-03-02 11:41:00,38.9,9.3,29.15,West,270,5.4,8.1,29,-99.99,,,-99.99,WSDL version 342,2013-03-02 16:41:00,
2013-03-02 11:46:00,39.1,9.5,29.15,WNW,298,5.0,8.7,29,-99.99,,,-99.99,WSDL version 342,2013-03-02 16:46:00,
2013-03-02 11:51:00,39.2,9.6,29.15,West,270,7.7,10.3,29,-99.99,,,-99.99,WSDL version 342,2013-03-02 16:51:00,
2013-03-02 11:56:00,39.0,9.3,29.15,WSW,256,5.3,10.3,28,-99.99,,,-99.99,WSDL version 342,2013-03-02 16:56:00,
2013-03-02 12:01:00,39.1,9.1,29.15,WNW,286,6.5,10.3,29,-99.99,,,-99.99,WSDL version 342,2013-03-02 17:01:00,
2013-03-02 12:06:00,39.2,9.0,29.15,WNW,295,5.2,11.0,28,-99.99,,,-99.99,WSDL version 342,2013-03-02 17:06:00,
2013-03-02 12:11:00,39.1,9.1,29.15,WNW,293,6.2,11.0,29,-99.99,,,-99.99,WSDL version 342,2013-03-02 17:11:00,
2013-03-02 12:16:00,39.9,9.9,29.15,WNW,287,3.5,7.8,28,-99.99,,,-99.99,WSDL version 342,2013-03-02 17:16:00,
2013-03-02 12:21:00,40.0,10.1,29.15,WNW,296,4.4,6.3,28,-99.99,,,-99.99,WSDL version 342,2013-03-02 17:21:00,
2013-03-02 12:26:00,39.6,9.2,29.12,WSW,251,5.5,8.1,28,-99.99,,,-99.99,WSDL version 342,2013-03-02 17:26:00,
2013-03-02 12:32:00,39.3,9.1,29.12,West,270,6.2,10.3,29,-99.99,,,-99.99,WSDL version 342,2013-03-02 17:32:00,
2013-03-02 12:37:00,40.0,9.5,29.12,WNW,289,5.7,10.3,28,-99.99,,,-99.99,WSDL version 342,2013-03-02 17:37:00,
2013-03-02 12:42:00,41.6,10.5,29.12,WNW,286,5.4,9.2,26,-99.99,,,-99.99,WSDL version 342,2013-03-02 17:42:00,
2013-03-02 12:47:00,41.4,9.0,29.12,WNW,298,6.9,13.2,26,-99.99,,,-99.99,WSDL version 342,2013-03-02 17:47:00,
2013-03-02 12:52:00,40.8,8.5,29.12,WNW,299,4.9,13.2,26,-99.99,,,-99.99,WSDL version 342,2013-03-02 17:52:00,
2013-03-02 12:57:00,40.6,8.4,29.12,WNW,298,6.5,9.6,26,-99.99,,,-99.99,WSDL version 342,2013-03-02 17:57:00,
2013-03-02 13:02:00,40.4,8.6,29.12,WNW,286,5.6,9.2,26,-99.99,,,-99.99,WSDL version 342,2013-03-02 18:02:00,
2013-03-02 13:07:00,39.9,7.8,29.09,WNW,296,4.8,8.7,26,-99.99,,,-99.99,WSDL version 342,2013-03-02 18:07:00,
2013-03-02 13:12:00,40.6,10.1,29.09,WNW,299,2.8,8.7,28,-99.99,,,-99.99,WSDL version 342,2013-03-02 18:12:00,
2013-03-02 13:17:00,40.6,9.2,29.09,WSW,238,4.4,9.8,26,-99.99,,,-99.99,WSDL version 342,2013-03-02 18:17:00,
2013-03-02 13:22:00,40.2,8.6,29.09,West,274,6.1,9.8,26,-99.99,,,-99.99,WSDL version 342,2013-03-02 18:22:00,
2013-03-02 13:27:00,40.3,9.5,29.09,WSW,248,4.8,8.5,28,-99.99,,,-99.99,WSDL version 342,2013-03-02 18:27:00,
2013-03-02 13:32:00,40.5,8.9,29.09,WSW,244,6.1,11.0,26,-99.99,,,-99.99,WSDL version 342,2013-03-02 18:32:00,
2013-03-02 13:37:00,40.3,8.1,29.09,NW,304,4.3,11.0,26,-99.99,,,-99.99,WSDL version 342,2013-03-02 18:37:00,
2013-03-02 13:42:00,39.7,7.6,29.09,West,264,5.4,9.6,26,-99.99,,,-99.99,WSDL version 342,2013-03-02 18:42:00,
2013-03-02 13:47:00,39.3,7.8,29.09,WNW,300,3.5,9.6,28,-99.99,,,-99.99,WSDL version 342,2013-03-02 18:47:00,
2013-03-02 13:52:00,38.8,8.4,29.09,West,264,5.6,8.7,29,-99.99,,,-99.99,WSDL version 342,2013-03-02 18:52:00,
2013-03-02 13:57:00,38.5,9.0,29.09,West,278,5.3,8.7,29,-99.99,,,-99.99,WSDL version 342,2013-03-02 18:57:00,
2013-03-02 14:02:00,38.4,8.9,29.09,WNW,286,4.0,8.1,29,-99.99,,,-99.99,WSDL version 342,2013-03-02 19:02:00,
2013-03-02 14:07:00,38.1,8.6,29.09,WNW,289,4.8,7.4,29,-99.99,,,-99.99,WSDL version 342,2013-03-02 19:07:00,
2013-03-02 14:12:00,37.8,8.3,29.09,West,270,5.5,9.6,29,-99.99,,,-99.99,WSDL version 342,2013-03-02 19:12:00,
2013-03-02 14:17:00,37.4,8.2,29.09,WNW,293,2.8,9.6,29,-99.99,,,-99.99,WSDL version 342,2013-03-02 19:17:00,
2013-03-02 14:22:00,37.5,8.2,29.12,WSW,257,3.8,8.5,29,-99.99,,,-99.99,WSDL version 342,2013-03-02 19:22:00,
2013-03-02 14:27:00,37.2,8.3,29.12,West,264,5.5,8.1,30,-99.99,,,-99.99,WSDL version 342,2013-03-02 19:27:00,
2013-03-02 14:32:00,37.0,8.4,29.12,West,266,5.4,8.1,30,-99.99,,,-99.99,WSDL version 342,2013-03-02 19:32:00,
2013-03-02 14:37:00,36.9,8.3,29.12,WNW,289,6.0,10.5,30,-99.99,,,-99.99,WSDL version 342,2013-03-02 19:37:00,
2013-03-02 14:42:00,36.9,8.3,29.12,NW,304,4.5,10.5,30,-99.99,,,-99.99,WSDL version 342,2013-03-02 19:42:00,
2013-03-02 14:47:00,36.9,8.3,29.12,WNW,285,6.2,10.3,30,-99.99,,,-99.99,WSDL version 342,2013-03-02 19:47:00,
2013-03-02 14:54:00,37.0,8.4,29.12,NW,308,5.4,10.3,30,-99.99,,,-99.99,WSDL version 342,2013-03-02 19:54:00,
2013-03-02 14:59:00,37.3,8.7,29.12,WNW,298,5.0,6.9,30,-99.99,,,-99.99,WSDL version 342,2013-03-02 19:59:00,
2013-03-02 15:04:00,37.5,8.9,29.12,WNW,290,2.5,6.5,30,-99.99,,,-99.99,WSDL version 342,2013-03-02 20:04:00,
2013-03-02 15:09:00,38.2,9.4,29.12,WNW,293,3.3,5.4,30,-99.99,,,-99.99,WSDL version 342,2013-03-02 20:09:00,
2013-03-02 15:14:00,37.8,8.8,29.12,West,278,5.7,7.6,29,-99.99,,,-99.99,WSDL version 342,2013-03-02 20:14:00,
2013-03-02 15:19:00,37.6,8.9,29.12,West,266,3.9,7.6,30,-99.99,,,-99.99,WSDL version 342,2013-03-02 20:19:00,
2013-03-02 15:24:00,37.6,8.9,29.12,WNW,293,4.1,6.0,30,-99.99,,,-99.99,WSDL version 342,2013-03-02 20:24:00,
2013-03-02 15:29:00,37.7,8.8,29.12,WNW,293,4.8,6.0,29,-99.99,,,-99.99,WSDL version 342,2013-03-02 20:29:00,
2013-03-02 15:34:00,37.3,8.4,29.12,West,281,3.9,6.0,30,-99.99,,,-99.99,WSDL version 342,2013-03-02 20:34:00,
2013-03-02 15:39:00,37.0,8.4,29.12,West,275,5.5,7.8,30,-99.99,,,-99.99,WSDL version 342,2013-03-02 20:39:00,
2013-03-02 15:44:00,36.6,8.0,29.12,NW,304,5.6,7.8,30,-99.99,,,-99.99,WSDL version 342,2013-03-02 20:44:00,
2013-03-02 15:49:00,36.4,7.9,29.12,West,259,5.8,5.8,30,-99.99,,,-99.99,WSDL version 342,2013-03-02 20:49:00,
2013-03-02 15:54:00,36.3,8.0,29.12,WNW,293,4.6,6.0,30,-99.99,,,-99.99,WSDL version 342,2013-03-02 20:54:00,
2013-03-02 15:59:00,36.0,7.5,29.12,WNW,289,6.2,7.6,30,-99.99,,,-99.99,WSDL version 342,2013-03-02 20:59:00,
2013-03-02 16:04:00,35.7,8.0,29.12,WNW,293,4.5,7.6,31,-99.99,,,-99.99,WSDL version 342,2013-03-02 21:04:00,
2013-03-02 16:10:00,35.6,8.0,29.12,WNW,296,4.5,7.8,31,-99.99,,,-99.99,WSDL version 342,2013-03-02 21:10:00,
2013-03-02 16:15:00,35.5,7.8,29.12,WNW,285,5.7,7.8,31,-99.99,,,-99.99,WSDL version 342,2013-03-02 21:15:00,
2013-03-02 16:20:00,35.4,7.8,29.12,WNW,293,5.9,7.6,31,-99.99,,,-99.99,WSDL version 342,2013-03-02 21:20:00,
2013-03-02 16:25:00,35.3,7.7,29.12,West,259,6.7,9.4,31,-99.99,,,-99.99,WSDL version 342,2013-03-02 21:25:00,
2013-03-02 16:30:00,35.0,7.4,29.12,West,263,6.2,10.1,31,-99.99,,,-99.99,WSDL version 342,2013-03-02 21:30:00,
2013-03-02 16:35:00,34.9,7.5,29.12,WNW,287,5.4,10.5,32,-99.99,,,-99.99,WSDL version 342,2013-03-02 21:35:00,
2013-03-02 16:40:00,35.1,8.2,29.09,WNW,293,5.4,10.5,32,-99.99,,,-99.99,WSDL version 342,2013-03-02 21:40:00,
2013-03-02 16:45:00,34.9,8.1,29.09,WNW,289,5.7,9.8,32,-99.99,,,-99.99,WSDL version 342,2013-03-02 21:45:00,
2013-03-02 16:50:00,34.7,7.8,29.09,WNW,293,5.9,9.8,32,-99.99,,,-99.99,WSDL version 342,2013-03-02 21:50:00,
2013-03-02 16:55:00,34.5,7.6,29.09,West,279,6.0,8.7,32,-99.99,,,-99.99,WSDL version 342,2013-03-02 21:55:00,
2013-03-02 17:00:00,34.3,7.5,29.09,WNW,293,5.8,7.8,32,-99.99,,,-99.99,WSDL version 342,2013-03-02 22:00:00,
2013-03-02 17:05:00,34.2,7.4,29.09,West,270,4.9,6.5,32,-99.99,,,-99.99,WSDL version 342,2013-03-02 22:05:00,
2013-03-02 17:10:00,34.2,7.4,29.09,WNW,293,4.3,6.5,32,-99.99,,,-99.99,WSDL version 342,2013-03-02 22:10:00,
2013-03-02 17:15:00,34.1,7.8,29.09,NW,315,5.4,5.8,32,-99.99,,,-99.99,WSDL version 342,2013-03-02 22:15:00,
2013-03-02 17:20:00,33.8,7.7,29.09,NW,315,4.1,5.8,33,-99.99,,,-99.99,WSDL version 342,2013-03-02 22:20:00,
2013-03-02 17:25:00,33.8,7.7,29.09,West,276,3.9,6.0,33,-99.99,,,-99.99,WSDL version 342,2013-03-02 22:25:00,
2013-03-02 17:30:00,33.6,8.2,29.09,West,270,4.7,6.0,34,-99.99,,,-99.99,WSDL version 342,2013-03-02 22:30:00,
2013-03-02 17:36:00,33.4,8.1,29.09,West,270,4.7,5.4,34,-99.99,,,-99.99,WSDL version 342,2013-03-02 22:36:00,
2013-03-02 17:41:00,33.3,7.9,29.09,West,270,2.8,4.3,34,-99.99,,,-99.99,WSDL version 342,2013-03-02 22:41:00,
2013-03-02 17:46:00,33.3,8.6,29.09,WNW,293,2.5,4.3,35,-99.99,,,-99.99,WSDL version 342,2013-03-02 22:46:00,
2013-03-02 17:51:00,33.2,8.5,29.09,West,276,4.3,5.6,35,-99.99,,,-99.99,WSDL version 342,2013-03-02 22:51:00,
2013-03-02 17:56:00,33.1,8.9,29.09,West,281,4.7,6.3,36,-99.99,,,-99.99,WSDL version 342,2013-03-02 22:56:00,
2013-03-02 18:01:00,32.9,8.9,29.09,WNW,285,5.1,7.6,36,-99.99,,,-99.99,WSDL version 342,2013-03-02 23:01:00,
2013-03-02 18:06:00,32.7,8.7,29.09,WNW,293,4.5,7.6,36,-99.99,,,-99.99,WSDL version 342,2013-03-02 23:06:00,
2013-03-02 18:11:00,32.7,8.9,29.06,NW,315,4.5,7.6,36,-99.99,,,-99.99,WSDL version 342,2013-03-02 23:11:00,
2013-03-02 18:16:00,32.6,8.6,29.06,West,259,4.9,7.8,36,-99.99,,,-99.99,WSDL version 342,2013-03-02 23:16:00,
2013-03-02 18:21:00,32.5,8.8,29.06,West,276,5.2,8.1,37,-99.99,,,-99.99,WSDL version 342,2013-03-02 23:21:00,
2013-03-02 18:26:00,32.5,8.8,29.09,WNW,285,4.8,8.1,37,-99.99,,,-99.99,WSDL version 342,2013-03-02 23:26:00,
2013-03-02 18:31:00,32.4,9.0,29.09,WNW,293,4.3,4.3,37,-99.99,,,-99.99,WSDL version 342,2013-03-02 23:31:00,
2013-03-02 18:36:00,32.4,8.8,29.09,WNW,293,5.4,6.9,36,-99.99,,,-99.99,WSDL version 342,2013-03-02 23:36:00,
2013-03-02 18:41:00,32.4,8.4,29.09,West,270,3.8,6.9,36,-99.99,,,-99.99,WSDL version 342,2013-03-02 23:41:00,
2013-03-02 18:46:00,32.2,8.3,29.09,WSW,255,4.8,6.9,36,-99.99,,,-99.99,WSDL version 342,2013-03-02 23:46:00,
2013-03-02 18:51:00,32.2,7.8,29.09,West,270,4.0,7.4,35,-99.99,,,-99.99,WSDL version 342,2013-03-02 23:51:00,
2013-03-02 18:56:00,32.2,7.7,29.06,West,275,5.5,10.3,35,-99.99,,,-99.99,WSDL version 342,2013-03-02 23:56:00,
2013-03-02 19:01:00,32.2,8.4,29.06,WNW,293,4.5,10.3,37,-99.99,,,-99.99,WSDL version 342,2013-03-03 00:01:00,
2013-03-02 19:06:00,32.2,8.2,29.06,WNW,293,4.6,6.5,36,-99.99,,,-99.99,WSDL version 342,2013-03-03 00:06:00,
2013-03-02 19:11:00,32.2,8.1,29.06,WNW,293,4.8,8.7,36,-99.99,,,-99.99,WSDL version 342,2013-03-03 00:11:00,
2013-03-02 19:16:00,32.1,9.1,29.06,WNW,293,8.7,8.7,35,-99.99,,,-99.99,WSDL version 342,2013-03-03 00:16:00,
2013-03-02 19:21:00,32.0,10.5,29.06,WNW,293,5.7,8.7,36,-99.99,,,-99.99,WSDL version 342,2013-03-03 00:21:00,
2013-03-02 19:26:00,32.0,10.6,29.09,WNW,293,4.5,8.7,36,-99.99,,,-99.99,WSDL version 342,2013-03-03 00:26:00,
2013-03-02 19:31:00,31.9,10.8,29.09,WNW,287,4.1,6.3,37,-99.99,,,-99.99,WSDL version 342,2013-03-03 00:31:00,
2013-03-02 19:36:00,31.8,11.2,29.09,West,276,3.9,4.9,37,-99.99,,,-99.99,WSDL version 342,2013-03-03 00:36:00,
2013-03-02 19:41:00,31.8,11.0,29.09,WNW,293,3.1,5.4,37,-99.99,,,-99.99,WSDL version 342,2013-03-03 00:41:00,
2013-03-02 19:46:00,31.6,11.0,29.09,West,278,2.8,5.4,37,-99.99,,,-99.99,WSDL version 342,2013-03-03 00:46:00,
2013-03-02 19:51:00,31.6,10.9,29.09,West,278,3.1,4.3,37,-99.99,,,-99.99,WSDL version 342,2013-03-03 00:51:00,
2013-03-02 19:56:00,31.5,10.8,29.09,West,279,4.9,4.9,37,-99.99,,,-99.99,WSDL version 342,2013-03-03 00:56:00,
2013-03-02 20:01:00,31.5,10.7,29.09,West,279,4.1,4.9,37,-99.99,,,-99.99,WSDL version 342,2013-03-03 01:01:00,
2013-03-02 20:06:00,31.4,10.7,29.09,WNW,293,4.3,6.0,37,-99.99,,,-99.99,WSDL version 342,2013-03-03 01:06:00,
2013-03-02 20:11:00,31.3,10.5,29.09,WNW,293,6.3,8.5,37,-99.99,,,-99.99,WSDL version 342,2013-03-03 01:11:00,
2013-03-02 20:16:00,31.3,10.5,29.09,West,281,5.0,8.5,37,-99.99,,,-99.99,WSDL version 342,2013-03-03 01:16:00,
2013-03-02 20:21:00,31.1,10.8,29.09,WNW,284,6.6,10.3,37,-99.99,,,-99.99,WSDL version 342,2013-03-03 01:21:00,
2013-03-02 20:26:00,31.1,10.6,29.09,West,275,3.8,10.3,38,-99.99,,,-99.99,WSDL version 342,2013-03-03 01:26:00,
2013-03-02 20:31:00,31.1,10.8,29.09,WNW,293,5.0,8.1,38,-99.99,,,-99.99,WSDL version 342,2013-03-03 01:31:00,
2013-03-02 20:36:00,30.9,11.0,29.09,WNW,293,4.1,8.1,38,-99.99,,,-99.99,WSDL version 342,2013-03-03 01:36:00,
2013-03-02 20:41:00,30.9,10.8,29.09,WNW,297,5.7,7.6,38,-99.99,,,-99.99,WSDL version 342,2013-03-03 01:41:00,
2013-03-02 20:46:00,30.8,10.9,29.09,WNW,300,3.8,7.6,39,-99.99,,,-99.99,WSDL version 342,2013-03-03 01:46:00,
2013-03-02 20:51:00,30.7,11.1,29.09,WNW,293,3.5,7.2,39,-99.99,,,-99.99,WSDL version 342,2013-03-03 01:51:00,
2013-03-02 20:56:00,30.6,11.0,29.09,WNW,293,4.0,7.2,40,-99.99,,,-99.99,WSDL version 342,2013-03-03 01:56:00,
2013-03-02 21:01:00,30.5,11.4,29.09,WNW,293,4.3,6.5,40,-99.99,,,-99.99,WSDL version 342,2013-03-03 02:01:00,
2013-03-02 21:06:00,30.4,11.3,29.09,West,270,3.5,7.4,40,-99.99,,,-99.99,WSDL version 342,2013-03-03 02:06:00,
2013-03-02 21:11:00,30.4,11.3,29.09,WNW,296,4.9,7.4,40,-99.99,,,-99.99,WSDL version 342,2013-03-03 02:11:00,
2013-03-02 21:16:00,30.3,11.4,29.09,WNW,293,4.7,6.9,41,-99.99,,,-99.99,WSDL version 342,2013-03-03 02:16:00,
2013-03-02 21:21:00,30.2,11.6,29.09,WNW,285,5.3,8.7,41,-99.99,,,-99.99,WSDL version 342,2013-03-03 02:21:00,
2013-03-02 21:26:00,30.2,11.5,29.09,West,278,5.7,8.7,41,-99.99,,,-99.99,WSDL version 342,2013-03-03 02:26:00,
2013-03-02 21:31:00,29.9,11.3,29.09,West,281,5.9,8.7,41,-99.99,,,-99.99,WSDL version 342,2013-03-03 02:31:00,
2013-03-02 21:36:00,29.8,11.2,29.09,WNW,293,5.8,8.7,41,-99.99,,,-99.99,WSDL version 342,2013-03-03 02:36:00,
2013-03-02 21:41:00,29.5,11.0,29.09,WNW,285,4.7,7.8,41,-99.99,,,-99.99,WSDL version 342,2013-03-03 02:41:00,
2013-03-02 21:46:00,29.4,10.9,29.09,WNW,285,5.7,7.2,41,-99.99,,,-99.99,WSDL version 342,2013-03-03 02:46:00,
2013-03-02 21:51:00,29.2,10.8,29.09,West,278,3.9,7.2,42,-99.99,,,-99.99,WSDL version 342,2013-03-03 02:51:00,
2013-03-02 21:56:00,28.9,10.8,29.09,West,270,4.5,4.5,42,-99.99,,,-99.99,WSDL version 342,2013-03-03 02:56:00,
2013-03-02 22:01:00,28.6,10.6,29.09,West,270,4.7,4.7,42,-99.99,,,-99.99,WSDL version 342,2013-03-03 03:01:00,
2013-03-02 22:06:00,28.6,10.6,29.09,West,270,6.5,6.5,42,-99.99,,,-99.99,WSDL version 342,2013-03-03 03:06:00,
2013-03-02 22:11:00,28.4,10.4,29.09,West,270,6.5,6.5,42,-99.99,,,-99.99,WSDL version 342,2013-03-03 03:11:00,
2013-03-02 22:16:00,28.2,10.7,29.09,West,281,3.9,6.3,43,-99.99,,,-99.99,WSDL version 342,2013-03-03 03:16:00,
2013-03-02 22:21:00,28.0,10.5,29.09,WNW,293,4.5,6.3,43,-99.99,,,-99.99,WSDL version 342,2013-03-03 03:21:00,
2013-03-02 22:26:00,28.0,10.4,29.09,WSW,248,5.6,6.3,42,-99.99,,,-99.99,WSDL version 342,2013-03-03 03:26:00,
2013-03-02 22:31:00,27.9,10.4,29.09,WNW,293,4.9,6.3,43,-99.99,,,-99.99,WSDL version 342,2013-03-03 03:31:00,
2013-03-02 22:36:00,27.8,10.3,29.09,WNW,293,5.8,7.4,43,-99.99,,,-99.99,WSDL version 342,2013-03-03 03:36:00,
2013-03-02 22:41:00,27.7,10.2,29.12,West,270,4.9,7.4,43,-99.99,,,-99.99,WSDL version 342,2013-03-03 03:41:00,
2013-03-02 22:46:00,27.5,10.0,29.12,West,270,4.9,7.4,43,-99.99,,,-99.99,WSDL version 342,2013-03-03 03:46:00,
2013-03-02 22:51:00,27.5,10.0,29.12,NW,321,5.6,7.4,43,-99.99,,,-99.99,WSDL version 342,2013-03-03 03:51:00,
2013-03-02 22:56:00,27.5,9.6,29.09,NNW,338,5.8,7.4,42,-99.99,,,-99.99,WSDL version 342,2013-03-03 03:56:00,
2013-03-02 23:01:00,27.3,9.4,29.09,NW,315,3.4,5.6,42,-99.99,,,-99.99,WSDL version 342,2013-03-03 04:01:00,
2013-03-02 23:06:00,27.1,9.7,29.09,WNW,293,4.5,6.0,43,-99.99,,,-99.99,WSDL version 342,2013-03-03 04:06:00,
2013-03-02 23:11:00,27.0,9.6,29.09,WNW,293,4.5,6.0,43,-99.99,,,-99.99,WSDL version 342,2013-03-03 04:11:00,
2013-03-02 23:16:00,27.0,9.5,29.09,WNW,293,4.5,6.0,43,-99.99,,,-99.99,WSDL version 342,2013-03-03 04:16:00,
2013-03-02 23:21:00,27.0,9.5,29.09,West,270,5.1,6.3,43,-99.99,,,-99.99,WSDL version 342,2013-03-03 04:21:00,
2013-03-02 23:26:00,27.0,9.5,29.09,NW,315,4.3,7.2,43,-99.99,,,-99.99,WSDL version 342,2013-03-03 04:26:00,
2013-03-02 23:31:00,26.9,9.5,29.09,WNW,293,5.4,7.2,43,-99.99,,,-99.99,WSDL version 342,2013-03-03 04:31:00,
2013-03-02 23:36:00,26.9,9.5,29.09,WNW,293,4.5,7.2,43,-99.99,,,-99.99,WSDL version 342,2013-03-03 04:36:00,
2013-03-02 23:41:00,26.8,9.4,29.09,WNW,293,4.0,6.0,43,-99.99,,,-99.99,WSDL version 342,2013-03-03 04:41:00,
2013-03-02 23:46:00,26.8,9.8,29.09,WNW,293,4.7,6.0,44,-99.99,,,-99.99,WSDL version 342,2013-03-03 04:46:00,
2013-03-02 23:51:00,26.9,9.9,29.09,West,281,5.5,10.5,44,-99.99,,,-99.99,WSDL version 342,2013-03-03 04:51:00,
2013-03-02 23:56:00,27.0,9.5,29.09,WNW,300,4.5,10.5,43,-99.99,,,-99.99,WSDL version 342,2013-03-03 04:56:00,